EW6790 Weather Reports


Display with metric or nautical units.
time (UTC)temp
F
wind
direction
speed
MPH
gust
MPH
rain 1hr
in
rain 24hr
in
rain mn
in
humidity
%
barometer
mb
20260509184526 62 33 11.0 22.0 0.00 0.00 0.00 34 1007.8
20260509183016 62 330 4.0 16.0 0.00 0.00 0.00 36 1007.7
20260509181559 62 300 6.0 21.0 0.00 0.00 0.00 35 1007.6
20260509180049 62 304 8.0 26.0 0.00 0.00 0.00 35 1007.6
20260509174529 62 316 4.0 18.0 0.00 0.00 0.00 37 1007.2
20260509173028 61 345 9.0 21.0 0.00 0.00 0.00 37 1007.2
20260509171507 62 7 7.0 14.0 0.00 0.00 0.00 39 1007.1
20260509170005 60 327 8.0 18.0 0.00 0.00 0.00 42 1007.2
20260509164549 60 106 6.0 24.0 0.00 0.00 0.00 46 1007.2
20260509163040 60 302 8.0 17.0 0.00 0.00 0.00 47 1006.9
20260509161520 60 51 3.0 22.0 0.00 0.00 0.00 48 1006.7
20260509160019 59 323 6.0 20.0 0.00 0.00 0.00 53 1006.5
20260509154600 58 339 8.0 18.0 0.00 0.00 0.00 55 1006.5
20260509153105 58 281 9.0 16.0 0.00 0.00 0.00 56 1006.5
20260509151542 58 311 10.0 22.0 0.00 0.00 0.00 58 1006.2
20260509150041 58 319 7.0 20.0 0.00 0.00 0.00 61 1006.0
20260509144531 57 343 8.0 18.0 0.00 0.00 0.00 63 1005.9
20260509143023 58 311 8.0 18.0 0.00 0.00 0.00 61 1005.8
20260509141507 58 301 8.0 15.0 0.00 0.00 0.00 64 1005.5
20260509140005 57 306 6.0 18.0 0.00 0.00 0.00 65 1005.2
20260509134548 56 340 7.0 15.0 0.00 0.00 0.00 67 1005.1
20260509133048 56 311 5.0 15.0 0.00 0.00 0.00 65 1005.1
20260509131550 55 316 4.0 12.0 0.00 0.00 0.00 63 1004.6
20260509130057 0 0.0 0.0 0.00 0.00 0.00 1004.2
20260509124542 0 0.0 0.0 0.00 0.00 0.00 1004.4
20260509123034 0 0.0 0.0 0.00 0.00 0.00 1004.3
20260509121530 0 0.0 0.0 0.00 0.00 0.00 1003.7
20260509120031 0 0.0 0.0 0.00 0.00 0.00 1004.1
20260509114503 0 0.0 0.0 0.00 0.00 0.00 1004.2
20260509113111 0 0.0 0.0 0.00 0.00 0.00 1004.0
20260509111537 0 0.0 0.0 0.00 0.00 0.00 1003.7
20260509110035 50 306 1.0 3.0 0.00 0.00 0.00 55 1003.5
20260509104522 50 297 0.0 4.0 0.00 0.00 0.00 55 1002.9
20260509103021 50 294 1.0 3.0 0.00 0.00 0.00 55 1002.7
20260509101520 48 309 3.0 15.0 0.00 0.00 0.00 56 1002.4
20260509100022 48 229 8.0 10.0 0.00 0.00 0.00 55 1001.5
20260509094518 48 229 7.0 10.0 0.00 0.00 0.00 54 1001.6
20260509093018 48 229 6.0 10.0 0.00 0.00 0.00 55 1001.7
20260509091516 48 226 8.0 11.0 0.00 0.00 0.00 55 1001.8
20260509090017 47 165 5.0 8.0 0.00 0.00 0.00 57 1001.9
20260509084558 47 236 5.0 9.0 0.00 0.00 0.00 57 1002.0
20260509083057 46 229 7.0 9.0 0.00 0.00 0.00 56 1001.9
20260509081545 46 239 5.0 8.0 0.00 0.00 0.00 57 1002.0
20260509080041 46 218 7.0 9.0 0.00 0.00 0.00 57 1001.7
20260509074519 46 214 5.0 8.0 0.00 0.00 0.00 56 1001.8
20260509073017 47 245 5.0 7.0 0.00 0.00 0.00 55 1002.1
20260509071559 45 226 4.0 5.0 0.00 0.00 0.00 56 1002.4
20260509064534 47 225 3.0 5.0 0.00 0.00 0.00 52 1002.6
20260509063029 49 226 2.0 4.0 0.00 0.00 0.00 50 1002.7
20260509061511 50 259 0.0 2.0 0.00 0.00 0.00 47 1003.0
20260509060004 52 248 3.0 5.0 0.00 0.00 0.00 44 1003.1
20260509054548 54 274 1.0 4.0 0.00 0.00 0.00 42 1003.2
20260509053045 54 274 0.0 0.0 0.00 0.00 0.00 42 1003.2
20260509051524 54 283 0.0 0.0 0.00 0.00 0.00 41 1003.3
20260509050030 55 313 0.0 0.0 0.00 0.00 0.00 40 1003.3
20260509044502 56 314 0.0 1.0 0.00 0.00 0.00 39 1003.3
20260509043059 57 314 1.0 2.0 0.00 0.00 0.00 39 1003.3
20260509041556 58 314 0.0 3.0 0.00 0.00 0.00 37 1003.3
20260509040037 59 304 3.0 6.0 0.00 0.00 0.00 36 1003.4
20260509034532 60 313 2.0 4.0 0.00 0.00 0.00 35 1003.4
20260509033011 61 318 1.0 3.0 0.00 0.00 0.00 34 1003.3
20260509031510 62 317 1.0 5.0 0.00 0.00 0.00 33 1003.2
20260509030049 62 313 3.0 7.0 0.00 0.00 0.00 32 1003.0
20260509024547 63 316 3.0 9.0 0.00 0.00 0.00 31 1002.8
20260509023033 63 321 4.0 8.0 0.00 0.00 0.00 31 1002.6
20260509021525 64 314 5.0 10.0 0.00 0.00 0.00 31 1002.3
20260509020010 65 326 5.0 10.0 0.00 0.00 0.00 31 1002.1
20260509014502 66 327 4.0 12.0 0.00 0.00 0.00 32 1001.9
20260509013050 67 316 4.0 11.0 0.00 0.00 0.00 31 1001.7
20260509011543 68 314 5.0 11.0 0.00 0.00 0.00 30 1001.4
20260509010023 69 319 7.0 13.0 0.00 0.00 0.00 29 1001.3
20260509004534 71 314 6.0 14.0 0.00 0.00 0.00 28 1001.2
20260509003006 72 320 9.0 16.0 0.00 0.00 0.00 27 1001.1
20260509001507 73 264 6.0 16.0 0.00 0.00 0.00 27 1001.2
20260509000052 72 316 8.0 19.0 0.00 0.00 0.00 27 1001.0
20260508234546 73 304 4.0 10.0 0.00 0.00 0.00 25 1001.0
20260508233021 74 324 3.0 8.0 0.00 0.00 0.00 24 1000.9
20260508231520 73 300 3.0 7.0 0.00 0.00 0.00 24 1001.0
20260508230003 74 318 4.0 14.0 0.00 0.00 0.00 23 1001.1
20260508224601 75 330 11.0 20.0 0.00 0.00 0.00 22 1001.0
20260508223043 73 305 3.0 8.0 0.00 0.00 0.00 23 1001.2
20260508221542 74 285 9.0 13.0 0.00 0.00 0.00 22 1001.3
20260508220023 74 280 6.0 15.0 0.00 0.00 0.00 22 1001.4
20260508214520 73 269 2.0 7.0 0.00 0.00 0.00 23 1001.7
20260508213003 73 319 3.0 10.0 0.00 0.00 0.00 23 1001.9
20260508211601 72 285 6.0 17.0 0.00 0.00 0.00 23 1002.1
20260508210042 73 268 4.0 11.0 0.00 0.00 0.00 23 1002.4
20260508204542 74 290 4.0 13.0 0.00 0.00 0.00 22 1002.4
20260508203020 73 310 3.0 10.0 0.00 0.00 0.00 22 1002.8
20260508201523 73 309 6.0 17.0 0.00 0.00 0.00 22 1003.0
20260508200059 73 281 3.0 18.0 0.00 0.00 0.00 22 1003.2
20260508194623 74 283 13.0 25.0 0.00 0.00 0.00 20 1003.2
20260508193037 73 270 10.0 19.0 0.00 0.00 0.00 21 1003.5
20260508191536 73 267 11.0 17.0 0.00 0.00 0.00 20 1003.7
20260508190015 73 319 4.0 15.0 0.00 0.00 0.00 21 1003.9